Location: Montague
(41.3030°N, 74.7940°W)
Time: 08:19:22
(UTC-05:00)

Daily predictions for brighter satellites

Satellite Brightness Start Highest point End
(mag) Time Altitude Azimuth Time Altitude Azimuth Time Altitude Azimuth
YAOGAN 1 2.6 17:30:54 10° SSE 17:35:14 85° ENE 17:39:35 10° NNW
COSMO-SKYMED 1 3.2 17:33:20 10° NNE 17:37:22 36° E 17:41:22 10° SSE
COSMOS 2441 4.3 17:34:21 10° SSE 17:39:09 69° ENE 17:43:58 10° N
CORIOLIS 4.2 17:33:58 10° SSE 17:39:19 89° WSW 17:44:44 10° NNW
SMAP 3.3 17:34:51 10° S 17:39:29 76° WSW 17:44:10 10° NNW
Cosmos 1666 Rocket 4.4 17:40:31 10° SSE 17:44:19 30° E 17:48:08 10° NNE
CENTAUR R/B 4.2 17:39:26 10° W 17:44:45 27° NW 17:50:38 10° NNE
ATLAS 5 CENTAUR R/B 4.2 17:43:28 10° N 17:44:53 11° NNE 17:46:20 10° NE
Lacrosse 4 Rocket 2.3 17:47:32 10° N 17:51:00 26° NE 17:54:26 10° ESE
Cosmos 1626 2.5 17:50:45 10° SSE 17:54:16 40° E 17:57:49 10° NNE
USA 229 DEB 4.1 17:51:22 10° S 17:57:46 45° ESE 18:04:17 10° NE
USA 229 4.1 17:51:28 10° S 17:57:52 44° ESE 18:04:23 10° NE
Cosmos 1151 Rocket 4.3 17:55:21 10° NNW 17:59:26 44° W 18:03:31 10° SSW
Resurs 01 Rocket 3.1 17:58:28 10° ESE 18:01:12 16° ENE 18:03:55 10° NNE
Cosmos 2219 Rocket 4.1 17:58:44 10° WSW 18:03:29 27° NW 18:08:14 10° N
Cosmos 2058 3.5 18:00:56 10° SSW 18:04:58 59° W 18:09:03 10° N
Cosmos 1184 Rocket 3.2 18:03:00 10° SSE 18:06:09 40° E 18:09:18 10° NNE
SKYMED 3 4.5 18:03:08 10° NNE 18:07:29 80° ESE 18:11:50 10° S
Cosmos 1726 4.3 18:04:27 10° NNW 18:07:49 31° W 18:11:10 10° SSW
Cosmos 2279 Rocket 4.2 18:01:56 10° N 18:08:10 79° W 18:14:23 10° S
CZ-4C R/B 4.4 18:04:56 10° N 18:08:18 14° NNE 18:11:11 11° NE
Iridium 4 Rocket 3.9 18:06:41 10° SE 18:10:25 28° E 18:14:00 10° NNE
Cosmos 1603 4.2 18:08:06 10° S 18:13:11 36° ESE 18:17:32 14° NE
Cosmos 2333 Rocket 4.0 18:09:31 10° WSW 18:14:21 28° NW 18:19:13 10° N
Cosmos 1461 3.7 18:11:11 10° SW 18:15:15 48° NW 18:19:11 10° NNE
Cosmos 304 Rocket 4.4 18:10:47 10° SSW 18:15:31 59° WNW 18:20:18 10° NNE
Aureole 1 Rocket 4.0 18:10:39 10° S 18:16:01 58° ESE 18:23:04 10° NNE
FREGAT/IRIS 3.4 18:13:19 10° SE 18:16:02 30° ENE 18:18:45 10° N
Lacrosse 5 rocket 4.0 18:13:34 10° WNW 18:16:30 21° SW 18:19:32 10° S
Cosmos 1470 Rocket 4.4 18:13:46 10° SSE 18:17:27 28° E 18:19:51 17° NE
DMSP B5D1-3 4.4 18:13:05 10° NNE 18:18:12 72° ESE 18:23:17 10° S
Cosmos 2278 Rocket 4.3 18:14:29 10° NW 18:19:23 30° WSW 18:24:15 10° SSW
Cosmos 1242 Rocket 3.3 18:16:35 10° NNE 18:19:39 28° ENE 18:22:42 10° SE
Cosmos 1455 2.1 18:17:24 10° N 18:21:13 70° E 18:25:01 10° SSE
Tiangong 1 2.4 18:19:30 10° SSW 18:22:00 24° SSE 18:22:42 22° SE
Cosmos 1805 Rocket 3.9 18:17:47 10° SSW 18:22:13 69° W 18:26:41 10° N
Cosmos 1356 Rocket 3.3 18:20:13 10° S 18:24:11 83° W 18:28:13 10° N
SKYMED 2 4.0 18:21:11 10° N 18:25:30 65° WNW 18:29:48 10° SSW
Nadezhda 4 Rocket 3.9 18:21:01 10° S 18:27:15 77° E 18:33:35 10° N
Cosmos 2242 Rocket 3.6 18:25:40 10° N 18:30:03 58° E 18:34:26 10° SSE
Cosmos 1538 Rocket 4.3 18:25:56 10° SSW 18:31:13 69° WNW 18:36:35 10° NNE
Sich 1 3.1 18:28:34 10° S 18:33:00 82° W 18:37:28 10° N
Coronas F rocket 1.1 18:35:27 10° SSW 18:37:48 70° W 18:37:55 68° NW
Cosmos 923 Rocket 3.9 18:33:52 10° S 18:38:59 63° ESE 18:42:58 17° NNE
Cosmos 2237 Rocket 4.3 18:39:05 10° WSW 18:43:24 22° NW 18:47:46 10° N
SJ-6B 2.8 18:39:49 10° SSE 18:43:54 83° ENE 18:48:04 10° N
Cosmos 1633 Rocket 3.3 18:40:28 10° SSW 18:44:50 69° W 18:49:14 10° N
Cosmos 1680 Rocket 3.6 18:39:57 10° S 18:45:00 55° ESE 18:47:47 26° NE
Cosmos 2369 Rocket 2.8 18:41:28 10° N 18:46:36 34° ENE 18:47:04 33° ENE
NOSS 3-1 (C) 3.9 18:43:41 10° S 18:48:53 37° ESE 18:50:00 34° E
Cosmos 1092 Rocket 3.9 18:44:18 10° S 18:50:39 84° E 18:57:02 10° N
SL-16 R/B 3.4 18:46:57 10° SW 18:52:14 40° WNW 18:57:33 10° N
Lacrosse 5 3.7 18:53:03 10° NNW 18:56:19 17° NNE 18:56:21 17° NNE
Cosmos 1867 4.5 18:52:06 10° NNW 18:56:26 30° NE 18:56:26 30° NE
ATLAS 3B R/B 4.4 18:56:02 10° NNW 18:59:44 15° NNE 19:00:18 14° NNE
USA 215 3.2 18:56:43 30° ESE 19:00:09 68° NE 19:06:39 10° NW
ALOS 2.1 18:57:02 10° SSE 19:01:41 73° ENE 19:06:21 10° N
Cosmos 1862 Rocket 3.4 19:04:36 10° N 19:09:01 87° E 19:13:21 10° S
FENGYUN 3A 3.5 19:06:02 10° SSE 19:11:23 85° ENE 19:16:48 10° NNW
BREEZE-M DEB (TANK) 4.5 19:07:23 10° SSW 19:11:59 45° ESE 19:15:10 36° E
Cosmos 292 Rocket 4.0 19:07:32 10° SSW 19:12:16 69° WNW 19:14:24 32° N
Cosmos 2195 Rocket 4.3 19:06:45 10° S 19:12:51 82° E 19:19:03 10° N
Cosmos 2112 Rocket 4.0 19:16:38 10° SSW 19:21:51 81° WNW 19:23:17 49° N
Meteor 2-20 Rocket 4.3 19:16:04 10° S 19:22:00 61° E 19:22:00 61° E
Cosmos 1943 3.1 19:23:21 10° SSW 19:28:35 70° SE 19:28:35 70° SE
Lacrosse 4 Rocket 3.4 19:26:12 10° NW 19:29:38 27° WSW 19:33:02 10° SSW
ATLAS 5 CENTAUR R/B 3.4 19:25:54 10° NNW 19:29:30 30° N 19:29:30 30° N
Resurs 01 Rocket 2.4 19:32:56 10° S 19:37:15 50° W 19:41:36 10° NNW
Cosmos 1417 Rocket 4.3 19:33:07 10° N 19:39:20 89° WSW 19:45:27 10° S
H-2A ROCKET BODY 3.8 19:29:21 10° W 19:43:30 31° SSW 19:45:24 26° S
Cosmos 1943 Rocket 3.9 19:42:38 10° NNW 19:44:33 21° N 19:44:33 21° N
Cosmos 1655 Rocket 4.3 19:45:27 10° SSW 19:51:48 68° W 19:58:08 10° N
CZ-4C R/B 3.9 19:52:19 10° NNW 19:56:23 31° N 19:56:23 31° N
NOSS 3-1 (A) 4.1 19:56:16 10° SSW 20:00:05 45° SW 20:00:05 45° SW
Cosmos 2369 Rocket 3.9 20:25:30 10° NW 20:28:57 29° WNW 20:28:57 29° WNW
